Tracking 19288 objects as of 20-Nov-2018
HD Live streaming from Space Station
objects crossing your sky now

IRIDIUM 71

Track IRIDIUM 71 now!
10-day predictions
IRIDIUM 71 is classified as:


NORAD ID: 25320
Int'l Code: 1998-026B
Perigee: 765.4 km
Apogee: 771.4 km
Inclination: 86.4 °
Period: 100.1 minutes
Semi major axis: 7139 km
RCS: 4.0318 m2 (large)
Launch date: May 2, 1998
Source: United States (US)
Launch site: Taiyaun Space Center, China (TSC)
aabbcc
Your satellite tracking list
Your tracking list is empty




NASA's NSSDC Master Catalog

Two Line Element Set (TLE):
1 25320U 98026B   18324.71904047  .00000064  00000-0  14201-4 0  9999
2 25320  86.4000  21.9730 0004189  81.9018 278.2656 14.39172770 78476
Source of the keplerian elements: AFSPC